Rockland, ME

11:42 PM EST on November 19, 2017 (GMT -0500)
Knox County Regional

Weather History for KRKD - January, 2013

Change the Weather History Date:

Thursday, January 31, 2013

  Actual Average Record
Temperature  
Mean Temperature 42 °F -  
Max Temperature 53 °F 29 °F 53 °F (2013)
Min Temperature 30 °F 14 °F 1 °F (2004)
Degree Days  
Heating Degree Days 24    
Moisture  
Dew Point 37 °F    
Average Humidity 74    
Maximum Humidity 100    
Minimum Humidity 41    
Precipitation  
Precipitation 0.10 in - - ()
Sea Level Pressure  
Sea Level Pressure 29.17 in    
Wind  
Wind Speed 19 mph (SW)    
Max Wind Speed 26 mph    
Max Gust Speed 45 mph    
Visibility 7 miles    
Events      
Averages and records for this station are not official NWS values.
T = Trace of Precipitation, MM = Missing Value Source: NWS Daily Summary

Daily Weather History Graph

Daily Weather History Graph

Search for Another Location

Airport or City:

Trip Planner

Search our weather history database for the weather conditions in past years. The results will help you decide how hot, cold, wet, or windy it might be!

Date:

Astronomy

Jan. 31, 2013 Rise Set
Actual Time 6:54 AM EST 4:45 PM EST
Civil Twilight 6:24 AM EST 5:16 PM EST
Nautical Twilight 5:49 AM EST 5:51 PM EST
Astronomical Twilight 5:15 AM EST 6:24 PM EST
Moon 9:57 PM EST (1/31) 8:40 AM EST (1/31)
Length of Visible Light 10h 52m
Length of Day
9h 50m
Waning Gibbous, 80% of the Moon is Illuminated
Jan 31
Waning Gibbous
Feb 3
Last Quarter
Feb 10
New
Feb 17
First Quarter
Feb 25
Full

Hourly Weather History & Observations

Time (EST) Temp. Windchill Dew Point Humidity Pressure Visibility Wind Dir Wind Speed Gust Speed Precip Events Conditions
12:15 AM 51.8 °F - 51.8 °F 100% 29.45 in 6.0 mi SW 18.4 mph 28.8 mph N/A   Overcast
12:35 AM 53.6 °F - 51.8 °F 94% 29.43 in 7.0 mi SSW 18.4 mph 27.6 mph N/A   Overcast
12:55 AM 53.6 °F - 53.6 °F 100% 29.43 in 6.0 mi SSW 17.3 mph 32.2 mph N/A   Overcast
1:15 AM 51.8 °F - 50.0 °F 94% 29.42 in 5.0 mi SSW 20.7 mph 31.1 mph 0.01 in   Overcast
1:35 AM 51.8 °F - 50.0 °F 94% 29.42 in 5.0 mi SSW 16.1 mph 31.1 mph 0.01 in   Overcast
1:55 AM 50.0 °F - 48.2 °F 94% 29.41 in 4.0 mi SSW 13.8 mph 23.0 mph 0.01 in   Overcast
2:15 AM 50.0 °F - 50.0 °F 100% 29.39 in 2.0 mi SSW 15.0 mph 23.0 mph N/A   Overcast
2:35 AM 50.0 °F - 50.0 °F 100% 29.36 in 1.8 mi South 17.3 mph 26.5 mph N/A   Overcast
2:55 AM 50.0 °F - 50.0 °F 100% 29.34 in 3.0 mi South 15.0 mph 28.8 mph N/A   Overcast
3:15 AM 51.8 °F - 51.8 °F 100% 29.33 in 6.0 mi SSW 20.7 mph 31.1 mph N/A   Overcast
3:35 AM 51.8 °F - 51.8 °F 100% 29.31 in 6.0 mi South 20.7 mph 34.5 mph N/A   Overcast
3:55 AM 51.8 °F - 51.8 °F 100% 29.28 in 6.0 mi South 18.4 mph 29.9 mph 0.01 in   Overcast
4:15 AM 51.8 °F - 51.8 °F 100% 29.27 in 5.0 mi South 19.6 mph 31.1 mph N/A   Overcast
4:35 AM 51.8 °F - 51.8 °F 100% 29.24 in 6.0 mi South 18.4 mph 32.2 mph N/A   Overcast
4:55 AM 51.8 °F - 51.8 °F 100% 29.22 in 5.0 mi South 18.4 mph 28.8 mph N/A   Overcast
5:15 AM 51.8 °F - 50.0 °F 94% 29.20 in 5.0 mi South 16.1 mph 29.9 mph N/A   Overcast
5:35 AM 50.0 °F - 48.2 °F 94% 29.18 in 5.0 mi South 16.1 mph 28.8 mph N/A   Overcast
5:55 AM 51.8 °F - 50.0 °F 94% 29.16 in 5.0 mi South 20.7 mph 31.1 mph N/A   Overcast
6:15 AM 51.8 °F - 50.0 °F 94% 29.15 in 4.0 mi South 21.9 mph 34.5 mph N/A   Overcast
6:55 AM 51.8 °F - 50.0 °F 94% 29.10 in 5.0 mi South 19.6 mph 32.2 mph N/A   Overcast
7:15 AM 50.0 °F - 50.0 °F 100% 29.08 in 5.0 mi South 18.4 mph 28.8 mph N/A   Overcast
7:35 AM 51.8 °F - 50.0 °F 94% 29.05 in 3.0 mi South 20.7 mph 32.2 mph 0.02 in   Overcast
7:55 AM 51.8 °F - 51.8 °F 100% 29.02 in 3.0 mi South 24.2 mph 34.5 mph 0.03 in   Overcast
8:15 AM 53.6 °F - 53.6 °F 100% 29.00 in 4.0 mi SSW 21.9 mph 36.8 mph 0.01 in   Overcast
8:35 AM 53.6 °F - 53.6 °F 100% 29.01 in 3.0 mi SSW 26.5 mph 44.9 mph 0.02 in   Overcast
8:55 AM 53.6 °F - 51.8 °F 94% 28.99 in 5.0 mi SSW 21.9 mph 39.1 mph 0.02 in   Mostly Cloudy
9:15 AM 53.6 °F - 51.8 °F 94% 28.98 in 7.0 mi SSW 23.0 mph 33.4 mph N/A   Mostly Cloudy
9:35 AM 53.6 °F - 51.8 °F 94% 28.95 in 3.0 mi SSW 23.0 mph 34.5 mph N/A   Overcast
9:55 AM 51.8 °F - 51.8 °F 100% 28.92 in 4.0 mi South 21.9 mph 33.4 mph 0.02 in   Overcast
10:15 AM 51.8 °F - 50.0 °F 94% 28.91 in 7.0 mi South 21.9 mph 33.4 mph 0.01 in   Overcast
10:35 AM 51.8 °F - 51.8 °F 100% 28.88 in 4.0 mi SSW 18.4 mph 34.5 mph 0.01 in   Overcast
10:55 AM 51.8 °F - 51.8 °F 100% 28.86 in 2.5 mi SSW 21.9 mph 38.0 mph 0.01 in   Overcast
11:15 AM 51.8 °F - 51.8 °F 100% 28.85 in 4.0 mi SSW 21.9 mph 34.5 mph N/A   Overcast
11:35 AM 51.8 °F - 50.0 °F 94% 28.84 in 3.0 mi SW 25.3 mph 38.0 mph N/A   Overcast
11:55 AM 51.8 °F - 46.4 °F 82% 28.87 in 10.0 mi WSW 23.0 mph 39.1 mph N/A   Mostly Cloudy
12:15 PM 50.0 °F - 42.8 °F 76% 28.88 in 10.0 mi WSW 16.1 mph 35.7 mph N/A   Mostly Cloudy
12:35 PM 48.2 °F - 42.8 °F 82% 28.91 in 10.0 mi WSW 21.9 mph 29.9 mph N/A   Mostly Cloudy
12:55 PM 48.2 °F - 39.2 °F 71% 28.94 in 10.0 mi WSW 26.5 mph 43.7 mph N/A   Scattered Clouds
1:15 PM 48.2 °F - 41.0 °F 76% 28.96 in 10.0 mi WSW 21.9 mph 34.5 mph N/A   Mostly Cloudy
1:35 PM 48.2 °F - 37.4 °F 66% 28.97 in 10.0 mi WSW 25.3 mph 33.4 mph N/A   Mostly Cloudy
1:55 PM 48.2 °F - 33.8 °F 58% 28.98 in 10.0 mi WSW 25.3 mph 34.5 mph N/A   Partly Cloudy
2:15 PM 48.2 °F - 30.2 °F 50% 29.01 in 10.0 mi WSW 21.9 mph 41.4 mph N/A   Clear
2:35 PM 46.4 °F 39.2 °F 30.2 °F 53% 29.02 in 10.0 mi WSW 18.4 mph 32.2 mph N/A   Clear
2:55 PM 46.4 °F 39.5 °F 30.2 °F 53% 29.04 in 10.0 mi WSW 17.3 mph 32.2 mph N/A   Clear
3:15 PM 46.4 °F 39.0 °F 30.2 °F 53% 29.06 in 10.0 mi SW 19.6 mph 26.5 mph N/A   Clear
3:35 PM 44.6 °F 36.9 °F 28.4 °F 53% 29.08 in 10.0 mi SW 18.4 mph 28.8 mph N/A   Clear
3:55 PM 44.6 °F 36.4 °F 26.6 °F 49% 29.10 in 10.0 mi WSW 20.7 mph 28.8 mph N/A   Clear
4:15 PM 42.8 °F 34.5 °F 26.6 °F 53% 29.11 in 10.0 mi WSW 18.4 mph 26.5 mph N/A   Clear
4:35 PM 42.8 °F 34.5 °F 24.8 °F 49% 29.14 in 10.0 mi WSW 18.4 mph 29.9 mph N/A   Partly Cloudy
4:55 PM 39.2 °F 29.6 °F 21.2 °F 49% 29.16 in 10.0 mi WSW 19.6 mph 29.9 mph N/A   Partly Cloudy
5:15 PM 39.2 °F 29.0 °F 21.2 °F 49% 29.18 in 10.0 mi WSW 21.9 mph 33.4 mph N/A   Scattered Clouds
5:55 PM 37.4 °F 26.6 °F 19.4 °F 48% 29.21 in 10.0 mi WSW 21.9 mph 28.8 mph N/A   Mostly Cloudy
6:15 PM 37.4 °F 26.6 °F 17.6 °F 45% 29.23 in 10.0 mi WSW 21.9 mph 39.1 mph N/A   Scattered Clouds
6:35 PM 37.4 °F 26.1 °F 15.8 °F 41% 29.24 in 10.0 mi WSW 24.2 mph 32.2 mph N/A   Clear
7:15 PM 35.6 °F 24.8 °F 17.6 °F 48% 29.27 in 10.0 mi WSW 19.6 mph 24.2 mph N/A   Clear
7:35 PM 35.6 °F 24.5 °F 15.8 °F 44% 29.28 in 10.0 mi West 20.7 mph 31.1 mph N/A   Clear
7:55 PM 35.6 °F 24.8 °F 14.0 °F 41% 29.29 in 10.0 mi WSW 19.6 mph 26.5 mph N/A   Clear
8:15 PM 35.6 °F 24.2 °F 15.8 °F 44% 29.29 in 10.0 mi WSW 21.9 mph 28.8 mph N/A   Clear
8:35 PM 35.6 °F 23.7 °F 14.0 °F 41% 29.31 in 10.0 mi WSW 24.2 mph 36.8 mph N/A   Clear
8:55 PM 33.8 °F 22.5 °F 15.8 °F 48% 29.32 in 10.0 mi West 19.6 mph 29.9 mph N/A   Clear
9:15 PM 33.8 °F 21.6 °F 12.2 °F 41% 29.33 in 10.0 mi WSW 23.0 mph 28.8 mph N/A   Clear
9:35 PM 33.8 °F 22.8 °F 12.2 °F 41% 29.34 in 10.0 mi WSW 18.4 mph 28.8 mph N/A   Partly Cloudy
9:55 PM 33.8 °F 23.5 °F 12.2 °F 41% 29.34 in 10.0 mi WSW 16.1 mph 33.4 mph N/A   Clear
10:15 PM 33.8 °F 22.8 °F 12.2 °F 41% 29.35 in 10.0 mi WSW 18.4 mph 33.4 mph N/A   Clear
10:35 PM 33.8 °F 22.8 °F 12.2 °F 41% 29.36 in 10.0 mi WSW 18.4 mph 32.2 mph N/A   Clear
10:55 PM 32.0 °F 19.5 °F 10.4 °F 41% 29.36 in 10.0 mi WSW 21.9 mph 33.4 mph N/A   Clear
11:15 PM 32.0 °F 20.8 °F 10.4 °F 41% 29.39 in 10.0 mi WSW 17.3 mph 27.6 mph N/A   Clear
11:35 PM 30.2 °F 18.9 °F 12.2 °F 47% 29.39 in 10.0 mi WSW 16.1 mph 23.0 mph N/A   Clear
11:55 PM 30.2 °F 17.8 °F 10.4 °F 44% 29.40 in 10.0 mi West 19.6 mph 28.8 mph N/A   Clear